Wind_Speed
5 5 4 3 4 4 3 3 3 2 2 2 2 3 4 5 5 5 4 4 4 5 6 6 6 7 7 8 8 9 10 10 11 11 11 12 13 13
5 5 5 4 4 4 4 4 4 3 3 3 4 4 5 5 5 6 6 5 4 5 7 7 7 7 8 10 10 10 11 11 12 13 13 13 15 15
4 4 4 4 3 3 3 3 4 4 4 4 4 5 5 6 6 6 7 6 6 6 8 8 9 9 9 11 11 11 12 13 14 14 15 15 15 16
3 3 3 3 3 3 3 3 4 4 4 4 5 5 6 6 7 7 7 8 8 8 8 9 10 11 11 12 13 13 13 14 15 16 17 17 17 17
4 4 4 3 3 3 3 4 4 5 5 5 6 6 6 7 8 8 9 9 10 10 10 11 12 12 13 14 15 15 15 16 17 18 18 19 20 20
5 5 5 4 4 4 5 5 5 6 6 7 8 8 8 8 9 10 10 11 11 12 12 13 13 15 15 16 17 18 18 18 19 20 21 22 23 24
6 6 6 6 6 6 6 7 7 8 8 9 9 10 10 11 11 12 12 12 13 13 14 15 16 17 17 18 19 20 20 21 21 22 23 24 25 27
8 8 8 8 7 7 8 8 9 9 10 11 11 12 13 13 14 14 14 14 15 16 17 18 18 19 20 21 22 22 23 23 24 25 26 27 28 30
10 9 9 9 9 10 10 10 11 12 13 14 14 15 15 16 16 16 17 17 18 18 19 20 21 21 23 24 25 26 27 27 28 29 29 30 31 32
11 11 11 11 12 12 13 13 14 14 15 16 16 17 17 18 18 18 19 20 20 21 22 22 23 25 26 27 28 29 29 30 31 31 32 33 34 35
14 13 14 14 15 15 16 16 16 17 17 18 18 19 20 21 21 22 22 23 24 25 26 26 27 28 29 30 31 32 33 33 34 34 35 36 37 38
16 16 17 17 18 18 18 19 19 19 20 21 21 22 23 23 24 25 25 26 27 28 29 30 31 31 31 32 34 35 35 36 37 37 38 39 40 41
17 18 19 20 20 21 21 21 22 22 23 23 24 25 25 26 26 27 28 29 30 31 32 33 34 34 35 35 36 37 38 39 40 40 41 42 44 45
20 20 21 22 23 23 23 24 24 25 25 26 26 27 28 29 29 30 31 32 33 34 35 36 36 37 38 39 39 40 41 42 43 43 44 45 46 47
22 23 23 23 24 25 26 26 27 27 28 29 29 30 31 31 32 33 33 34 35 36 37 39 40 41 41 42 43 43 44 45 46 46 46 47 48 49
24 24 24 25 26 27 28 28 29 29 30 31 32 32 33 34 35 35 36 37 38 39 40 41 42 43 44 45 45 46 47 48 48 48 48 49 50 51
26 26 27 28 28 29 30 30 31 32 33 34 34 35 36 37 37 38 39 40 41 42 42 43 44 45 46 47 48 49 49 50 50 51 51 52 52 52
29 29 30 30 31 32 32 32 33 34 35 36 36 38 39 40 40 41 42 43 44 44 45 46 48 49 49 49 51 51 51 52 52 53 54 54 53 53
31 31 32 33 34 34 35 35 36 37 38 38 39 40 41 42 43 44 44 45 46 47 49 50 51 52 52 52 52 53 54 54 55 55 55 55 55 54
33 34 35 36 36 37 38 38 39 40 40 41 41 42 43 44 45 46 47 48 49 50 52 53 53 54 54 55 54 54 55 56 56 56 56 56 55 55
36 37 37 38 39 39 40 40 41 42 43 44 45 45 46 47 48 49 51 52 53 54 54 54 54 55 55 56 56 55 56 57 58 57 57 56 55 54
38 39 39 40 41 42 43 43 44 45 46 47 47 48 49 51 52 53 54 55 56 56 56 56 56 56 57 57 57 57 57 57 57 56 56 56 56 55
40 41 41 42 43 44 45 46 47 47 48 49 50 51 52 53 54 55 56 56 57 57 58 58 58 58 59 60 59 59 58 58 57 56 55 56 56 56
Wind_Direction
47 50 52 58 62 60 59 56 54 51 46 30 6 356 351 346 344 342 332 313 311 314 312 309 306 315 308 299 290 285 281 280 282 284 285 286 288 289
44 49 54 57 51 50 54 57 52 41 29 17 12 359 354 353 348 346 341 326 318 316 313 315 314 319 312 305 297 289 285 283 283 286 286 287 286 287
35 41 45 42 41 38 41 36 27 19 12 8 7 9 2 355 347 343 340 334 321 314 313 314 312 310 312 308 302 297 291 288 287 287 286 285 286 287
13 15 16 16 15 13 11 6 1 356 351 350 352 348 349 351 348 344 339 333 327 318 312 311 311 308 307 307 304 301 296 292 289 286 286 283 284 286
343 341 343 344 344 343 337 334 333 334 331 328 329 331 331 332 331 331 328 324 321 318 312 311 309 309 307 304 302 301 298 295 292 289 287 286 285 286
326 330 330 326 324 321 320 317 317 319 320 319 319 319 318 320 319 319 318 316 314 313 311 311 311 308 305 304 302 301 299 297 294 290 289 288 287 286
310 315 316 315 314 311 311 309 310 312 312 314 314 313 312 313 312 312 311 311 309 308 308 307 307 308 305 303 302 300 298 297 295 294 291 289 288 287
295 298 302 305 304 306 307 307 308 309 309 309 309 309 308 307 306 306 307 307 305 305 305 305 305 305 305 305 304 302 300 297 295 293 291 290 290 289
287 291 297 299 299 301 302 301 302 303 305 306 305 306 305 304 304 303 303 304 304 304 303 304 304 305 305 305 304 304 302 299 297 295 291 293 292 292
286 288 290 293 294 296 298 300 300 301 303 304 304 304 304 304 303 303 302 303 305 305 304 304 304 304 304 304 303 303 302 301 299 297 296 294 296 296
283 285 288 290 291 293 294 296 297 298 299 300 301 303 304 304 304 303 302 302 302 302 301 302 302 302 302 303 302 302 302 301 300 298 296 295 296 296
285 286 288 289 291 292 293 293 295 297 298 299 300 301 302 302 302 302 301 300 299 299 300 300 300 300 301 301 302 302 302 301 299 298 297 295 294 294
284 285 287 288 290 291 292 292 293 294 294 296 297 298 299 299 299 299 299 299 299 299 299 300 300 301 301 301 301 301 301 300 299 298 297 296 295 295
284 286 288 289 290 290 290 291 291 292 293 294 295 296 297 298 298 298 298 298 299 299 299 299 299 300 300 300 301 301 300 299 299 298 298 297 297 296
286 288 289 290 290 290 290 290 290 291 292 293 294 295 295 296 296 297 298 298 299 299 299 299 299 300 300 300 300 300 300 300 299 299 298 298 297 297
286 288 289 289 290 290 290 290 290 291 292 293 294 295 295 295 295 296 297 297 298 298 298 298 299 299 299 300 300 300 299 299 299 299 298 298 298 298
286 288 288 288 289 290 291 291 291 292 293 294 294 294 294 295 295 296 296 296 297 298 298 298 298 299 299 300 300 300 299 299 299 299 298 299 299 298
285 285 286 287 289 290 290 290 290 291 292 293 294 294 294 294 294 295 296 296 297 297 298 298 299 299 299 299 299 299 299 299 299 299 298 298 298 298
284 284 285 286 288 289 290 290 291 291 292 294 294 294 295 295 295 295 295 296 297 297 298 298 298 298 298 299 299 299 300 299 299 299 298 298 298 297
284 284 285 286 288 289 289 290 290 291 292 293 293 294 294 295 295 295 295 296 296 297 297 298 298 298 298 298 298 299 299 299 299 299 298 297 297 297
284 285 285 286 287 288 288 289 289 290 291 292 292 293 294 294 295 295 295 296 296 296 296 296 296 296 297 297 298 299 299 299 299 299 298 298 297 297
286 286 287 287 288 288 288 288 289 290 291 291 292 292 292 294 294 294 295 296 296 296 296 296 295 296 297 297 298 298 298 298 298 298 298 298 298 297
286 287 288 288 288 288 289 289 290 290 291 291 292 293 293 294 295 294 295 295 296 296 296 295 295 295 296 296 297 297 297 297 297 296 296 296 297 297
Height
5876 5876 5875 5875 5875 5875 5875 5876 5876 5876 5876 5875 5875 5875 5874 5873 5872 5871 5871 5871 5871 5871 5871 5871 5871 5870 5870 5870 5869 5869 5869 5869 5870 5870 5870 5870 5869 5869
5877 5876 5876 5876 5876 5876 5876 5876 5876 5876 5876 5875 5875 5875 5874 5873 5872 5871 5870 5870 5870 5870 5870 5870 5869 5869 5868 5868 5867 5867 5867 5867 5867 5867 5867 5867 5866 5866
5877 5877 5877 5876 5876 5876 5876 5876 5876 5876 5876 5876 5875 5874 5873 5873 5871 5871 5870 5870 5869 5869 5869 5868 5868 5867 5866 5866 5865 5865 5864 5864 5864 5863 5863 5863 5863 5862
5878 5877 5877 5877 5877 5877 5877 5877 5876 5876 5876 5876 5875 5874 5873 5872 5871 5870 5870 5869 5868 5868 5867 5867 5866 5865 5864 5863 5863 5862 5861 5860 5860 5860 5859 5859 5858 5858
5878 5877 5877 5877 5876 5876 5876 5876 5876 5876 5875 5875 5875 5874 5873 5872 5871 5870 5869 5868 5867 5866 5865 5865 5864 5863 5861 5860 5859 5858 5857 5857 5856 5855 5855 5854 5853 5853
5877 5877 5876 5876 5876 5875 5875 5875 5875 5875 5874 5874 5874 5873 5872 5871 5870 5869 5868 5867 5866 5865 5864 5862 5861 5860 5859 5857 5856 5855 5853 5852 5851 5850 5849 5849 5848 5847
5877 5876 5875 5875 5874 5874 5874 5874 5874 5874 5873 5873 5872 5871 5870 5869 5868 5867 5866 5865 5864 5862 5861 5860 5858 5857 5855 5854 5852 5850 5849 5847 5846 5844 5843 5842 5841 5840
5875 5875 5874 5873 5873 5873 5873 5873 5872 5872 5871 5871 5870 5869 5868 5867 5866 5865 5864 5862 5861 5860 5858 5856 5855 5853 5851 5849 5847 5845 5843 5841 5839 5838 5836 5835 5833 5831
5873 5873 5872 5872 5871 5871 5871 5871 5870 5869 5869 5868 5867 5866 5865 5864 5862 5861 5860 5858 5857 5855 5854 5852 5850 5848 5846 5843 5841 5838 5836 5834 5831 5829 5828 5826 5824 5822
5871 5871 5870 5870 5869 5869 5869 5868 5867 5867 5866 5865 5864 5862 5861 5859 5858 5857 5855 5854 5852 5850 5848 5847 5844 5842 5839 5836 5833 5831 5827 5825 5822 5819 5817 5815 5813 5811
5868 5868 5867 5867 5866 5866 5865 5865 5864 5863 5862 5860 5859 5858 5856 5855 5853 5852 5850 5848 5847 5844 5842 5840 5838 5835 5832 5829 5825 5822 5819 5815 5812 5809 5806 5804 5802 5799
5865 5864 5864 5863 5862 5862 5861 5860 5859 5858 5857 5855 5854 5852 5851 5849 5847 5846 5844 5842 5840 5838 5835 5833 5830 5827 5825 5821 5817 5813 5809 5806 5802 5799 5796 5793 5790 5787
5860 5860 5859 5858 5858 5857 5856 5855 5854 5853 5851 5850 5848 5846 5844 5843 5841 5838 5836 5834 5832 5829 5827 5824 5821 5818 5815 5812 5808 5804 5799 5795 5791 5788 5784 5781 5777 5774
5855 5855 5854 5853 5852 5851 5850 5849 5847 5846 5845 5843 5841 5840 5838 5835 5833 5830 5828 5826 5823 5820 5817 5814 5811 5808 5804 5801 5797 5793 5789 5785 5780 5776 5772 5768 5763 5759
5850 5849 5848 5847 5846 5844 5843 5842 5840 5839 5837 5836 5834 5832 5829 5827 5824 5822 5819 5816 5813 5810 5807 5803 5800 5797 5793 5789 5786 5781 5777 5773 5768 5764 5759 5754 5749 5744
5844 5843 5841 5840 5839 5837 5836 5834 5833 5831 5829 5827 5825 5823 5821 5818 5815 5813 5810 5807 5804 5801 5796 5793 5789 5785 5781 5777 5773 5768 5764 5759 5754 5749 5745 5740 5734 5729
5837 5836 5835 5833 5832 5830 5828 5826 5824 5823 5821 5819 5816 5814 5811 5808 5806 5803 5800 5796 5793 5790 5786 5781 5777 5773 5768 5764 5759 5754 5749 5745 5739 5734 5729 5725 5720 5713
5830 5828 5827 5825 5823 5822 5820 5818 5816 5813 5811 5809 5806 5803 5800 5797 5794 5791 5788 5784 5781 5777 5773 5769 5764 5760 5756 5751 5745 5739 5735 5729 5724 5719 5713 5708 5704 5698
5821 5820 5818 5816 5814 5812 5810 5808 5805 5803 5800 5798 5795 5792 5789 5786 5782 5779 5775 5772 5768 5764 5759 5755 5750 5745 5741 5737 5732 5724 5718 5713 5708 5703 5697 5691 5687 5681
5811 5810 5808 5807 5804 5802 5800 5797 5795 5792 5789 5786 5783 5780 5776 5773 5769 5766 5762 5758 5754 5749 5745 5740 5734 5729 5724 5720 5716 5710 5703 5696 5691 5686 5681 5675 5670 5664
5801 5799 5797 5795 5793 5791 5788 5786 5783 5780 5777 5774 5770 5767 5763 5759 5755 5751 5747 5743 5738 5733 5729 5724 5718 5713 5707 5703 5699 5694 5688 5680 5673 5668 5663 5658 5653 5648
5790 5788 5786 5784 5781 5778 5776 5773 5770 5767 5763 5760 5756 5753 5749 5745 5740 5736 5731 5727 5722 5717 5712 5707 5702 5696 5691 5686 5681 5676 5671 5665 5658 5651 5645 5639 5634 5630
5778 5776 5774 5771 5768 5766 5763 5759 5756 5753 5749 5746 5742 5738 5733 5729 5724 5719 5715 5710 5705 5700 5695 5690 5685 5679 5673 5668 5663 5658 5652 5647 5641 5636 5631 5624 5618 5613